Regional Weather Roundup
Issued by NWS

Home | Current Version | Previous Version | Text Only | Print | Product List | Glossary On
Versions: 1 2 3 4 5 6 7 8 9 10 11 12 13 14 15 16 17 18 19 20 21 22 23 24 25 26 27 28 29 30 31 32 33 34 35 36 37 38 39 40 41 42 43 44 45 46 47 48 49 50
000
ASUS42 KKEY 221010
RWRKEY

FLORIDA REGIONAL WEATHER ROUNDUP FOR THE FLORIDA KEYS
NATIONAL WEATHER SERVICE KEY WEST FLORIDA
600 AM EDT SAT JUL 22 2017

...SOUTH FLORIDA AND THE KEYS...

CITY           SKY/WX    TMP DP  RH WIND       PRES   REMARKS
FORT MYERS     CLEAR     77  75  93 SE5       30.04R
SW REGIONAL AP CLEAR     76  74  93 SE5       30.04R
NAPLES         CLOUDY    77  75  93 E3        30.05R
MIAMI          PTCLDY    78  74  87 CALM      30.05R
WEST KENDALL   CLEAR     76  73  91 CALM      30.04R
HOMESTEAD      PTCLDY    76  76 100 CALM      30.04R
MARATHON       PTCLDY    84  78  82 SE5       30.03R HX  95
BOCA CHICA NAS PTCLDY    83  79  88 SE7       30.03R HX  94
KEY WEST INTL  PTCLDY    84  77  79 SE9       30.04R HX  94

...INTERNATIONAL WEATHER...

CITY           SKY/WX    TMP DP  RH WIND       PRES   REMARKS
NASSAU BAHAMAS MOCLDY    82  72  69 E3        30.07S VSB 5/8
CANCUN MEXICO  CLEAR     77  77 100 CALM      29.99S
COZUMEL MEXICO PTCLDY    75  73  94 CALM      29.97S

ADJACENT COASTAL WATERS...

STATION/POSITION TIME  SKY/WX   TEMP    WIND        PRES    WAVE
                                AIR SEA DIR/SP/G            HT/PER
                 (UTC)          (F)     (DEG/KT/KT) (MB)    (FT/S)
PULASKI SHOAL LI 1000            85     130/  9/ 11 1017.1R
SAND KEY         0950            83     130/ 12/ 15 1017.4R
LONG KEY         NOT AVBL
MOLASSES REEF    0800            83 86   CALM  /  2 1017.5F
FOWEY ROCKS      0900            82 87  130/  8/  9 1017.7F
Buoy 42097       0930               87                N/A     1

$$



USA.gov is the U.S. government's official web portal to all federal, state and local government web resources and services.